| time (UTC) | temp F | wind direction | speed MPH | gust MPH | rain 1hr in | rain 24hr in | rain mn in | humidity % | barometer mb |
| 20260507130447 | 67 | 360 | 4.0 | 10.0 | 0.00 | 0.00 | 0.00 | 35 | 1014.5 |
| 20260507125947 | 67 | 351 | 6.0 | 8.0 | 0.00 | 0.00 | 0.00 | 34 | 1014.7 |
| 20260507125447 | 67 | 333 | 2.0 | 8.0 | 0.00 | 0.00 | 0.00 | 34 | 1014.7 |
| 20260507124948 | 67 | 339 | 4.0 | 6.0 | 0.00 | 0.00 | 0.00 | 34 | 1014.7 |
| 20260507124447 | 67 | 340 | 3.0 | 6.0 | 0.00 | 0.00 | 0.00 | 34 | 1014.8 |
| 20260507123947 | 67 | 346 | 3.0 | 6.0 | 0.00 | 0.00 | 0.00 | 34 | 1014.7 |
| 20260507123447 | 67 | 360 | 4.0 | 5.0 | 0.00 | 0.00 | 0.00 | 34 | 1014.7 |
| 20260507122447 | 67 | 5 | 0.0 | 8.0 | 0.00 | 0.00 | 0.00 | 33 | 1014.8 |
| 20260507120947 | 68 | 5 | 5.0 | 9.0 | 0.00 | 0.00 | 0.00 | 33 | 1014.7 |
| 20260507120447 | 68 | 355 | 2.0 | 10.0 | 0.00 | 0.00 | 0.00 | 33 | 1014.7 |
| 20260507115947 | 68 | 336 | 4.0 | 10.0 | 0.00 | 0.00 | 0.00 | 33 | 1014.8 |
| 20260507115447 | 67 | 355 | 6.0 | 9.0 | 0.00 | 0.00 | 0.00 | 33 | 1014.7 |
| 20260507114447 | 67 | 346 | 2.0 | 5.0 | 0.00 | 0.00 | 0.00 | 34 | 1014.7 |
| 20260507113947 | 67 | 345 | 2.0 | 6.0 | 0.00 | 0.00 | 0.00 | 34 | 1014.8 |
| 20260507113448 | 68 | 344 | 3.0 | 6.0 | 0.00 | 0.00 | 0.00 | 33 | 1014.8 |
| 20260507111947 | 67 | 360 | 5.0 | 8.0 | 0.00 | 0.00 | 0.00 | 33 | 1014.7 |
| 20260507110947 | 68 | 355 | 5.0 | 9.0 | 0.00 | 0.00 | 0.00 | 33 | 1014.8 |
| 20260507105947 | 68 | 342 | 3.0 | 8.0 | 0.00 | 0.00 | 0.00 | 32 | 1014.9 |
| 20260507105447 | 68 | 5 | 3.0 | 8.0 | 0.00 | 0.00 | 0.00 | 32 | 1014.9 |
| 20260507104947 | 68 | 348 | 4.0 | 6.0 | 0.00 | 0.00 | 0.00 | 32 | 1014.9 |
| 20260507104447 | 68 | 351 | 4.0 | 6.0 | 0.00 | 0.00 | 0.00 | 33 | 1015.0 |
| 20260507103947 | 67 | 355 | 3.0 | 6.0 | 0.00 | 0.00 | 0.00 | 33 | 1014.9 |
| 20260507103446 | 67 | 355 | 3.0 | 6.0 | 0.00 | 0.00 | 0.00 | 33 | 1015.0 |
| 20260507102447 | 66 | 265 | 3.0 | 4.0 | 0.00 | 0.00 | 0.00 | 35 | 1015.0 |
| 20260507101947 | 65 | 251 | 0.0 | 1.0 | 0.00 | 0.00 | 0.00 | 36 | 1015.0 |
| 20260507101446 | 66 | 251 | 0.0 | 0.0 | 0.00 | 0.00 | 0.00 | 36 | 1015.1 |
| 20260507100947 | 66 | 251 | 0.0 | 2.0 | 0.00 | 0.00 | 0.00 | 36 | 1015.2 |
| 20260507100446 | 66 | 251 | 0.0 | 2.0 | 0.00 | 0.00 | 0.00 | 35 | 1015.2 |
| 20260507095946 | 66 | 251 | 0.0 | 2.0 | 0.00 | 0.00 | 0.00 | 35 | 1015.2 |
| 20260507095446 | 67 | 251 | 1.0 | 2.0 | 0.00 | 0.00 | 0.00 | 35 | 1015.4 |
| 20260507094946 | 66 | 250 | 0.0 | 2.0 | 0.00 | 0.00 | 0.00 | 35 | 1015.3 |
| 20260507094446 | 67 | 250 | 0.0 | 2.0 | 0.00 | 0.00 | 0.00 | 35 | 1015.4 |
| 20260507093947 | 67 | 250 | 0.0 | 2.0 | 0.00 | 0.00 | 0.00 | 35 | 1015.4 |
| 20260507092947 | 67 | 250 | 1.0 | 1.0 | 0.00 | 0.00 | 0.00 | 35 | 1015.5 |
| 20260507092447 | 67 | 250 | 0.0 | 0.0 | 0.00 | 0.00 | 0.00 | 34 | 1015.5 |
| 20260507091947 | 67 | 250 | 0.0 | 0.0 | 0.00 | 0.00 | 0.00 | 34 | 1015.6 |
| 20260507090946 | 67 | 250 | 0.0 | 0.0 | 0.00 | 0.00 | 0.00 | 34 | 1015.7 |
| 20260507085946 | 68 | 250 | 0.0 | 0.0 | 0.00 | 0.00 | 0.00 | 33 | 1015.6 |
| 20260507085447 | 67 | 250 | 0.0 | 0.0 | 0.00 | 0.00 | 0.00 | 33 | 1015.6 |
| 20260507084946 | 67 | 250 | 0.0 | 0.0 | 0.00 | 0.00 | 0.00 | 33 | 1015.6 |
| 20260507084447 | 67 | 250 | 0.0 | 0.0 | 0.00 | 0.00 | 0.00 | 33 | 1015.7 |
| 20260507083946 | 67 | 250 | 0.0 | 0.0 | 0.00 | 0.00 | 0.00 | 34 | 1015.7 |
| 20260507083446 | 67 | 249 | 0.0 | 0.0 | 0.00 | 0.00 | 0.00 | 34 | 1015.8 |
| 20260507082947 | 67 | 249 | 0.0 | 0.0 | 0.00 | 0.00 | 0.00 | 34 | 1015.8 |
| 20260507082447 | 67 | 249 | 0.0 | 0.0 | 0.00 | 0.00 | 0.00 | 34 | 1015.8 |
| 20260507081946 | 67 | 249 | 0.0 | 0.0 | 0.00 | 0.00 | 0.00 | 34 | 1015.8 |
| 20260507081447 | 67 | 249 | 0.0 | 0.0 | 0.00 | 0.00 | 0.00 | 34 | 1015.8 |
| 20260507080946 | 68 | 249 | 0.0 | 0.0 | 0.00 | 0.00 | 0.00 | 34 | 1015.9 |
| 20260507080446 | 68 | 249 | 0.0 | 0.0 | 0.00 | 0.00 | 0.00 | 34 | 1015.9 |
| 20260507075946 | 68 | 249 | 0.0 | 0.0 | 0.00 | 0.00 | 0.00 | 35 | 1016.0 |
| 20260507075446 | 68 | 249 | 0.0 | 1.0 | 0.00 | 0.00 | 0.00 | 34 | 1016.0 |
| 20260507074946 | 68 | 249 | 0.0 | 1.0 | 0.00 | 0.00 | 0.00 | 35 | 1016.0 |
| 20260507074446 | 68 | 249 | 1.0 | 1.0 | 0.00 | 0.00 | 0.00 | 34 | 1016.0 |
| 20260507073946 | 68 | 249 | 0.0 | 0.0 | 0.00 | 0.00 | 0.00 | 35 | 1016.0 |
| 20260507073446 | 68 | 249 | 0.0 | 0.0 | 0.00 | 0.00 | 0.00 | 34 | 1016.0 |
| 20260507072946 | 69 | 249 | 0.0 | 0.0 | 0.00 | 0.00 | 0.00 | 34 | 1016.0 |
| 20260507071946 | 69 | 249 | 0.0 | 0.0 | 0.00 | 0.00 | 0.00 | 33 | 1015.9 |
| 20260507071446 | 69 | 249 | 0.0 | 0.0 | 0.00 | 0.00 | 0.00 | 33 | 1015.8 |
| 20260507070946 | 70 | 249 | 0.0 | 0.0 | 0.00 | 0.00 | 0.00 | 32 | 1015.9 |
| 20260507070516 | 70 | 249 | 0.0 | 1.0 | 0.00 | 0.00 | 0.00 | 32 | 1015.9 |
| 20260507065946 | 70 | 249 | 0.0 | 1.0 | 0.00 | 0.00 | 0.00 | 32 | 1015.8 |
| 20260507065446 | 70 | 249 | 0.0 | 1.0 | 0.00 | 0.00 | 0.00 | 32 | 1015.8 |
| 20260507064946 | 70 | 249 | 0.0 | 1.0 | 0.00 | 0.00 | 0.00 | 32 | 1015.9 |
| 20260507064447 | 70 | 249 | 0.0 | 1.0 | 0.00 | 0.00 | 0.00 | 32 | 1015.8 |
| 20260507063946 | 70 | 249 | 0.0 | 1.0 | 0.00 | 0.00 | 0.00 | 32 | 1015.8 |
| 20260507063446 | 70 | 249 | 1.0 | 1.0 | 0.00 | 0.00 | 0.00 | 32 | 1015.8 |
| 20260507062946 | 70 | 249 | 0.0 | 1.0 | 0.00 | 0.00 | 0.00 | 32 | 1015.8 |
| 20260507062446 | 70 | 249 | 0.0 | 1.0 | 0.00 | 0.00 | 0.00 | 32 | 1015.9 |
| 20260507061946 | 70 | 249 | 0.0 | 0.0 | 0.00 | 0.00 | 0.00 | 33 | 1015.8 |
| 20260507061446 | 70 | 249 | 0.0 | 1.0 | 0.00 | 0.00 | 0.00 | 32 | 1015.8 |
| 20260507060946 | 70 | 249 | 0.0 | 1.0 | 0.00 | 0.00 | 0.00 | 33 | 1015.9 |
| 20260507060516 | 70 | 249 | 0.0 | 1.0 | 0.00 | 0.00 | 0.00 | 33 | 1015.8 |
| 20260507055947 | 70 | 249 | 0.0 | 0.0 | 0.00 | 0.00 | 0.00 | 33 | 1015.8 |
| 20260507055446 | 70 | 249 | 0.0 | 0.0 | 0.00 | 0.00 | 0.00 | 32 | 1015.8 |
| 20260507054946 | 71 | 249 | 0.0 | 1.0 | 0.00 | 0.00 | 0.00 | 32 | 1015.7 |
| 20260507054447 | 71 | 249 | 0.0 | 1.0 | 0.00 | 0.00 | 0.00 | 32 | 1015.7 |
| 20260507053946 | 71 | 249 | 0.0 | 0.0 | 0.00 | 0.00 | 0.00 | 32 | 1015.7 |
| 20260507053446 | 71 | 249 | 0.0 | 0.0 | 0.00 | 0.00 | 0.00 | 32 | 1015.7 |
| 20260507052946 | 71 | 249 | 0.0 | 0.0 | 0.00 | 0.00 | 0.00 | 32 | 1015.6 |
| 20260507051946 | 72 | 249 | 0.0 | 0.0 | 0.00 | 0.00 | 0.00 | 31 | 1015.8 |
| 20260507051446 | 72 | 249 | 0.0 | 0.0 | 0.00 | 0.00 | 0.00 | 32 | 1015.7 |
| 20260507050946 | 72 | 249 | 0.0 | 0.0 | 0.00 | 0.00 | 0.00 | 31 | 1015.6 |
| 20260507050446 | 72 | 249 | 0.0 | 0.0 | 0.00 | 0.00 | 0.00 | 30 | 1015.7 |
| 20260507045947 | 72 | 249 | 0.0 | 0.0 | 0.00 | 0.00 | 0.00 | 30 | 1015.5 |
| 20260507044946 | 73 | 249 | 0.0 | 0.0 | 0.00 | 0.00 | 0.00 | 30 | 1015.5 |
| 20260507044446 | 73 | 249 | 0.0 | 0.0 | 0.00 | 0.00 | 0.00 | 29 | 1015.4 |
| 20260507043946 | 73 | 249 | 0.0 | 0.0 | 0.00 | 0.00 | 0.00 | 29 | 1015.4 |
| 20260507043446 | 73 | 249 | 0.0 | 0.0 | 0.00 | 0.00 | 0.00 | 29 | 1015.4 |
| 20260507042946 | 74 | 249 | 0.0 | 0.0 | 0.00 | 0.00 | 0.00 | 29 | 1015.4 |
| 20260507041446 | 75 | 249 | 0.0 | 0.0 | 0.00 | 0.00 | 0.00 | 27 | 1015.3 |
| 20260507040517 | 75 | 249 | 0.0 | 0.0 | 0.00 | 0.00 | 0.00 | 27 | 1015.1 |
| 20260507035446 | 76 | 249 | 0.0 | 0.0 | 0.00 | 0.00 | 0.00 | 26 | 1015.0 |
| 20260507034946 | 76 | 249 | 0.0 | 0.0 | 0.00 | 0.00 | 0.00 | 26 | 1014.9 |
| 20260507034446 | 76 | 249 | 0.0 | 0.0 | 0.00 | 0.00 | 0.00 | 26 | 1014.8 |
| 20260507033946 | 76 | 249 | 0.0 | 0.0 | 0.00 | 0.00 | 0.00 | 25 | 1014.7 |
| 20260507033446 | 76 | 249 | 0.0 | 0.0 | 0.00 | 0.00 | 0.00 | 25 | 1014.7 |
| 20260507032946 | 76 | 249 | 0.0 | 0.0 | 0.00 | 0.00 | 0.00 | 25 | 1014.7 |
| 20260507032446 | 76 | 249 | 0.0 | 0.0 | 0.00 | 0.00 | 0.00 | 25 | 1014.6 |
| 20260507030948 | 77 | 249 | 0.0 | 1.0 | 0.00 | 0.00 | 0.00 | 24 | 1014.4 |
| 20260507030515 | 77 | 249 | 0.0 | 1.0 | 0.00 | 0.00 | 0.00 | 24 | 1014.3 |
| 20260507025946 | 77 | 249 | 0.0 | 2.0 | 0.00 | 0.00 | 0.00 | 24 | 1014.1 |
| 20260507025446 | 77 | 249 | 0.0 | 2.0 | 0.00 | 0.00 | 0.00 | 24 | 1014.0 |
| 20260507024445 | 78 | 249 | 0.0 | 0.0 | 0.00 | 0.00 | 0.00 | 23 | 1013.9 |
| 20260507023946 | 78 | 249 | 0.0 | 1.0 | 0.00 | 0.00 | 0.00 | 23 | 1014.0 |
| 20260507023447 | 79 | 249 | 0.0 | 1.0 | 0.00 | 0.00 | 0.00 | 23 | 1013.9 |
| 20260507022945 | 79 | 249 | 0.0 | 2.0 | 0.00 | 0.00 | 0.00 | 23 | 1013.9 |
| 20260507022446 | 79 | 249 | 0.0 | 2.0 | 0.00 | 0.00 | 0.00 | 22 | 1013.9 |
| 20260507021945 | 79 | 249 | 0.0 | 5.0 | 0.00 | 0.00 | 0.00 | 22 | 1013.8 |
| 20260507020515 | 80 | 246 | 0.0 | 3.0 | 0.00 | 0.00 | 0.00 | 22 | 1013.8 |
| 20260507015945 | 81 | 244 | 0.0 | 2.0 | 0.00 | 0.00 | 0.00 | 22 | 1013.6 |
| 20260507014945 | 81 | 243 | 1.0 | 6.0 | 0.00 | 0.00 | 0.00 | 22 | 1013.6 |
| 20260507014446 | 81 | 240 | 3.0 | 7.0 | 0.00 | 0.00 | 0.00 | 21 | 1013.3 |
| 20260507013945 | 81 | 269 | 2.0 | 7.0 | 0.00 | 0.00 | 0.00 | 21 | 1013.4 |
| 20260507013446 | 81 | 278 | 2.0 | 6.0 | 0.00 | 0.00 | 0.00 | 21 | 1013.4 |
| 20260507012946 | 81 | 279 | 6.0 | 6.0 | 0.00 | 0.00 | 0.00 | 21 | 1013.4 |
| 20260507012446 | 82 | 282 | 3.0 | 4.0 | 0.00 | 0.00 | 0.00 | 21 | 1013.5 |
| 20260507011945 | 82 | 286 | 0.0 | 4.0 | 0.00 | 0.00 | 0.00 | 21 | 1013.5 |
| 20260507011445 | 82 | 130 | 0.0 | 11.0 | 0.00 | 0.00 | 0.00 | 21 | 1013.6 |
| 20260507010515 | 84 | 244 | 0.0 | 3.0 | 0.00 | 0.00 | 0.00 | 20 | 1013.6 |
| 20260507005945 | 84 | 244 | 0.0 | 5.0 | 0.00 | 0.00 | 0.00 | 20 | 1013.4 |
| 20260507005445 | 85 | 245 | 0.0 | 8.0 | 0.00 | 0.00 | 0.00 | 20 | 1013.5 |
| 20260507004946 | 85 | 242 | 0.0 | 8.0 | 0.00 | 0.00 | 0.00 | 20 | 1013.5 |
| 20260507004445 | 85 | 245 | 1.0 | 3.0 | 0.00 | 0.00 | 0.00 | 20 | 1013.5 |
| 20260507003945 | 84 | 229 | 0.0 | 5.0 | 0.00 | 0.00 | 0.00 | 20 | 1013.4 |
| 20260507002946 | 84 | 227 | 1.0 | 3.0 | 0.00 | 0.00 | 0.00 | 21 | 1013.3 |
| 20260507002446 | 84 | 200 | 1.0 | 4.0 | 0.00 | 0.00 | 0.00 | 21 | 1013.2 |
| 20260507001945 | 83 | 200 | 0.0 | 7.0 | 0.00 | 0.00 | 0.00 | 21 | 1013.3 |
| 20260507000515 | 84 | 224 | 2.0 | 7.0 | 0.00 | 0.00 | 0.00 | 21 | 1013.3 |
| 20260506235445 | 84 | 234 | 1.0 | 4.0 | 0.00 | 0.00 | 0.00 | 20 | 1013.4 |
| 20260506234945 | 85 | 233 | 2.0 | 7.0 | 0.00 | 0.00 | 0.00 | 20 | 1013.3 |
| 20260506234445 | 84 | 240 | 1.0 | 7.0 | 0.00 | 0.00 | 0.00 | 20 | 1013.3 |
| 20260506233945 | 84 | 346 | 0.0 | 6.0 | 0.00 | 0.00 | 0.00 | 20 | 1013.3 |
| 20260506233446 | 84 | 346 | 3.0 | 6.0 | 0.00 | 0.00 | 0.00 | 20 | 1013.4 |
| 20260506232945 | 84 | 329 | 1.0 | 6.0 | 0.00 | 0.00 | 0.00 | 20 | 1013.5 |
| 20260506232445 | 85 | 333 | 1.0 | 6.0 | 0.00 | 0.00 | 0.00 | 21 | 1013.5 |
| 20260506230945 | 84 | 229 | 0.0 | 4.0 | 0.00 | 0.00 | 0.00 | 21 | 1013.7 |
| 20260506225946 | 84 | 228 | 1.0 | 6.0 | 0.00 | 0.00 | 0.00 | 22 | 1013.8 |
| 20260506225445 | 84 | 225 | 4.0 | 6.0 | 0.00 | 0.00 | 0.00 | 21 | 1013.9 |
| 20260506223945 | 84 | 229 | 1.0 | 7.0 | 0.00 | 0.00 | 0.00 | 21 | 1014.2 |
| 20260506222945 | 83 | 223 | 0.0 | 10.0 | 0.00 | 0.00 | 0.00 | 21 | 1014.1 |
| 20260506222445 | 83 | 223 | 0.0 | 10.0 | 0.00 | 0.00 | 0.00 | 21 | 1014.3 |
| 20260506220945 | 83 | 243 | 2.0 | 7.0 | 0.00 | 0.00 | 0.00 | 21 | 1014.5 |
| 20260506215945 | 83 | 257 | 1.0 | 6.0 | 0.00 | 0.00 | 0.00 | 22 | 1014.8 |
| 20260506213945 | 82 | 321 | 2.0 | 9.0 | 0.00 | 0.00 | 0.00 | 22 | 1014.8 |
| 20260506213445 | 82 | 242 | 4.0 | 7.0 | 0.00 | 0.00 | 0.00 | 23 | 1015.0 |
| 20260506212945 | 82 | 317 | 0.0 | 8.0 | 0.00 | 0.00 | 0.00 | 22 | 1015.1 |
| 20260506212445 | 83 | 265 | 3.0 | 8.0 | 0.00 | 0.00 | 0.00 | 22 | 1015.2 |
| 20260506211945 | 82 | 256 | 0.0 | 6.0 | 0.00 | 0.00 | 0.00 | 22 | 1015.1 |
| 20260506211445 | 82 | 242 | 2.0 | 6.0 | 0.00 | 0.00 | 0.00 | 22 | 1015.2 |
| 20260506210946 | 81 | 258 | 3.0 | 4.0 | 0.00 | 0.00 | 0.00 | 23 | 1015.4 |
| 20260506210516 | 81 | 261 | 0.0 | 4.0 | 0.00 | 0.00 | 0.00 | 22 | 1015.5 |
| 20260506205945 | 80 | 255 | 2.0 | 5.0 | 0.00 | 0.00 | 0.00 | 23 | 1015.5 |
| 20260506205445 | 80 | 279 | 0.0 | 5.0 | 0.00 | 0.00 | 0.00 | 23 | 1015.6 |
| 20260506204945 | 80 | 309 | 0.0 | 5.0 | 0.00 | 0.00 | 0.00 | 22 | 1015.8 |
| 20260506204445 | 82 | 313 | 1.0 | 5.0 | 0.00 | 0.00 | 0.00 | 23 | 1015.9 |
| 20260506203945 | 81 | 238 | 0.0 | 8.0 | 0.00 | 0.00 | 0.00 | 23 | 1015.8 |
| 20260506203444 | 81 | 259 | 0.0 | 8.0 | 0.00 | 0.00 | 0.00 | 23 | 1016.0 |
| 20260506202945 | 80 | 299 | 2.0 | 8.0 | 0.00 | 0.00 | 0.00 | 23 | 1016.0 |
| 20260506202445 | 79 | 33 | 3.0 | 5.0 | 0.00 | 0.00 | 0.00 | 24 | 1016.0 |
| 20260506201444 | 79 | 127 | 4.0 | 8.0 | 0.00 | 0.00 | 0.00 | 23 | 1016.0 |
| 20260506200945 | 79 | 317 | 2.0 | 7.0 | 0.00 | 0.00 | 0.00 | 24 | 1016.1 |
| 20260506195945 | 80 | 256 | 0.0 | 7.0 | 0.00 | 0.00 | 0.00 | 23 | 1016.2 |
| 20260506195445 | 81 | 259 | 3.0 | 10.0 | 0.00 | 0.00 | 0.00 | 24 | 1016.4 |
| 20260506194945 | 81 | 249 | 5.0 | 10.0 | 0.00 | 0.00 | 0.00 | 24 | 1016.3 |
| 20260506194444 | 79 | 10 | 1.0 | 4.0 | 0.00 | 0.00 | 0.00 | 24 | 1016.3 |
| 20260506193445 | 79 | 244 | 1.0 | 8.0 | 0.00 | 0.00 | 0.00 | 24 | 1016.4 |
| 20260506192944 | 79 | 229 | 8.0 | 8.0 | 0.00 | 0.00 | 0.00 | 23 | 1016.5 |
| 20260506192445 | 80 | 315 | 3.0 | 7.0 | 0.00 | 0.00 | 0.00 | 24 | 1016.5 |
| 20260506191944 | 78 | 219 | 0.0 | 9.0 | 0.00 | 0.00 | 0.00 | 26 | 1016.5 |
| 20260506191444 | 79 | 239 | 6.0 | 9.0 | 0.00 | 0.00 | 0.00 | 26 | 1016.6 |
| 20260506190944 | 79 | 244 | 2.0 | 7.0 | 0.00 | 0.00 | 0.00 | 27 | 1016.7 |
| 20260506190514 | 79 | 163 | 5.0 | 6.0 | 0.00 | 0.00 | 0.00 | 26 | 1016.7 |
| 20260506185944 | 80 | 159 | 2.0 | 8.0 | 0.00 | 0.00 | 0.00 | 26 | 1016.8 |
| 20260506185444 | 78 | 159 | 2.0 | 8.0 | 0.00 | 0.00 | 0.00 | 28 | 1017.0 |
| 20260506184945 | 77 | 244 | 1.0 | 8.0 | 0.00 | 0.00 | 0.00 | 28 | 1017.0 |
| 20260506184445 | 78 | 240 | 2.0 | 8.0 | 0.00 | 0.00 | 0.00 | 27 | 1016.9 |
| 20260506183945 | 77 | 252 | 1.0 | 10.0 | 0.00 | 0.00 | 0.00 | 28 | 1017.2 |
| 20260506182944 | 76 | 212 | 3.0 | 7.0 | 0.00 | 0.00 | 0.00 | 29 | 1017.2 |
| 20260506182444 | 77 | 192 | 1.0 | 7.0 | 0.00 | 0.00 | 0.00 | 27 | 1017.4 |
| 20260506181945 | 76 | 232 | 3.0 | 10.0 | 0.00 | 0.00 | 0.00 | 30 | 1017.4 |
| 20260506181445 | 77 | 219 | 7.0 | 10.0 | 0.00 | 0.00 | 0.00 | 29 | 1017.4 |
| 20260506180444 | 76 | 216 | 0.0 | 7.0 | 0.00 | 0.00 | 0.00 | 29 | 1017.4 |
| 20260506175944 | 77 | 188 | 0.0 | 5.0 | 0.00 | 0.00 | 0.00 | 28 | 1017.7 |
| 20260506175445 | 75 | 188 | 1.0 | 6.0 | 0.00 | 0.00 | 0.00 | 30 | 1017.5 |
| 20260506174945 | 76 | 144 | 2.0 | 6.0 | 0.00 | 0.00 | 0.00 | 30 | 1017.6 |
| 20260506174444 | 75 | 261 | 2.0 | 4.0 | 0.00 | 0.00 | 0.00 | 30 | 1017.6 |
| 20260506173944 | 75 | 257 | 3.0 | 7.0 | 0.00 | 0.00 | 0.00 | 30 | 1017.7 |
| 20260506173444 | 75 | 261 | 0.0 | 7.0 | 0.00 | 0.00 | 0.00 | 31 | 1017.6 |
| 20260506172944 | 74 | 270 | 0.0 | 3.0 | 0.00 | 0.00 | 0.00 | 32 | 1017.5 |
| 20260506172445 | 75 | 270 | 0.0 | 6.0 | 0.00 | 0.00 | 0.00 | 31 | 1017.6 |
| 20260506171944 | 75 | 265 | 0.0 | 6.0 | 0.00 | 0.00 | 0.00 | 31 | 1017.7 |
| 20260506171444 | 74 | 38 | 1.0 | 4.0 | 0.00 | 0.00 | 0.00 | 32 | 1017.5 |
| 20260506170944 | 73 | 44 | 1.0 | 5.0 | 0.00 | 0.00 | 0.00 | 33 | 1017.4 |
| 20260506165944 | 72 | 331 | 2.0 | 5.0 | 0.00 | 0.00 | 0.00 | 32 | 1017.4 |
| 20260506164944 | 73 | 194 | 4.0 | 5.0 | 0.00 | 0.00 | 0.00 | 32 | 1017.5 |
| 20260506164444 | 73 | 193 | 2.0 | 5.0 | 0.00 | 0.00 | 0.00 | 33 | 1017.4 |
| 20260506163944 | 73 | 211 | 0.0 | 4.0 | 0.00 | 0.00 | 0.00 | 32 | 1017.4 |
| 20260506163444 | 72 | 101 | 0.0 | 2.0 | 0.00 | 0.00 | 0.00 | 33 | 1017.4 |
| 20260506162944 | 72 | 103 | 1.0 | 4.0 | 0.00 | 0.00 | 0.00 | 34 | 1017.4 |
| 20260506162444 | 72 | 103 | 0.0 | 4.0 | 0.00 | 0.00 | 0.00 | 33 | 1017.4 |
| 20260506161444 | 71 | 98 | 2.0 | 6.0 | 0.00 | 0.00 | 0.00 | 34 | 1017.2 |
| 20260506160944 | 72 | 206 | 1.0 | 5.0 | 0.00 | 0.00 | 0.00 | 34 | 1017.3 |
| 20260506160514 | 70 | 207 | 0.0 | 5.0 | 0.00 | 0.00 | 0.00 | 35 | 1017.3 |
| 20260506155945 | 71 | 193 | 1.0 | 4.0 | 0.00 | 0.00 | 0.00 | 35 | 1017.5 |
| 20260506154445 | 70 | 79 | 0.0 | 2.0 | 0.00 | 0.00 | 0.00 | 36 | 1017.4 |
| 20260506153944 | 70 | 79 | 0.0 | 2.0 | 0.00 | 0.00 | 0.00 | 36 | 1017.4 |
| 20260506153445 | 70 | 79 | 1.0 | 4.0 | 0.00 | 0.00 | 0.00 | 37 | 1017.5 |
| 20260506152944 | 70 | 79 | 0.0 | 4.0 | 0.00 | 0.00 | 0.00 | 36 | 1017.5 |
| 20260506152444 | 70 | 62 | 1.0 | 4.0 | 0.00 | 0.00 | 0.00 | 37 | 1017.6 |
| 20260506151944 | 69 | 59 | 0.0 | 3.0 | 0.00 | 0.00 | 0.00 | 38 | 1017.5 |
| 20260506151444 | 69 | 119 | 0.0 | 3.0 | 0.00 | 0.00 | 0.00 | 38 | 1017.5 |
| 20260506150944 | 69 | 119 | 1.0 | 3.0 | 0.00 | 0.00 | 0.00 | 39 | 1017.7 |
| 20260506150514 | 68 | 205 | 0.0 | 3.0 | 0.00 | 0.00 | 0.00 | 39 | 1017.5 |
| 20260506145944 | 68 | 109 | 0.0 | 4.0 | 0.00 | 0.00 | 0.00 | 39 | 1017.6 |
| 20260506145444 | 67 | 109 | 1.0 | 4.0 | 0.00 | 0.00 | 0.00 | 40 | 1017.5 |
| 20260506144444 | 66 | 111 | 2.0 | 6.0 | 0.00 | 0.00 | 0.00 | 41 | 1017.3 |
| 20260506143944 | 66 | 109 | 0.0 | 4.0 | 0.00 | 0.00 | 0.00 | 41 | 1017.3 |
| 20260506143444 | 66 | 110 | 0.0 | 4.0 | 0.00 | 0.00 | 0.00 | 42 | 1017.3 |
| 20260506142944 | 65 | 109 | 0.0 | 4.0 | 0.00 | 0.00 | 0.00 | 43 | 1017.3 |
| 20260506142514 | 65 | 105 | 0.0 | 4.0 | 0.00 | 0.00 | 0.00 | 43 | 1017.1 |
| 20260506141944 | 64 | 105 | 1.0 | 6.0 | 0.00 | 0.00 | 0.00 | 44 | 1017.0 |
| 20260506141444 | 64 | 106 | 2.0 | 6.0 | 0.00 | 0.00 | 0.00 | 44 | 1017.0 |
| 20260506140944 | 63 | 88 | 1.0 | 5.0 | 0.00 | 0.00 | 0.00 | 45 | 1017.0 |
| 20260506140514 | 63 | 88 | 0.0 | 5.0 | 0.00 | 0.00 | 0.00 | 45 | 1016.9 |
| 20260506135944 | 62 | 164 | 0.0 | 4.0 | 0.00 | 0.00 | 0.00 | 46 | 1016.9 |
| 20260506135444 | 61 | 84 | 2.0 | 5.0 | 0.00 | 0.00 | 0.00 | 48 | 1016.7 |
| 20260506134944 | 60 | 82 | 1.0 | 5.0 | 0.00 | 0.00 | 0.00 | 49 | 1016.6 |
| 20260506134444 | 60 | 76 | 2.0 | 4.0 | 0.00 | 0.00 | 0.00 | 50 | 1016.6 |
| 20260506133944 | 60 | 65 | 2.0 | 4.0 | 0.00 | 0.00 | 0.00 | 50 | 1016.5 |
| 20260506133445 | 59 | 64 | 0.0 | 4.0 | 0.00 | 0.00 | 0.00 | 50 | 1016.5 |
| 20260506132444 | 59 | 88 | 0.0 | 2.0 | 0.00 | 0.00 | 0.00 | 51 | 1016.4 |
| 20260506131944 | 58 | 77 | 1.0 | 2.0 | 0.00 | 0.00 | 0.00 | 52 | 1016.2 |